Weather History for Pullman, WA

Change the Weather History Date:

Thursday, July 11, 2013

  Actual Average Record
Temperature  
Mean Temperature 63 °F 65 °F  
Max Temperature 80 °F 81 °F 97 °F (1975)
Min Temperature 45 °F 49 °F 33 °F (2008)
Degree Days  
Heating Degree Days 2 2  
Month to date heating degree days 7 36  
Since 1 June heating degree days 197 242  
Since 1 July heating degree days 7 36  
Cooling Degree Days 0 2  
Month to date cooling degree days 45 20  
Year to date cooling degree days 90 38  
Since 1 June cooling degree days 78 33  
Growing Degree Days 14 (Base 50)    
Moisture  
Dew Point 41 °F    
Average Humidity 47    
Maximum Humidity 71    
Minimum Humidity 23    
Precipitation  
Precipitation 0.03 in 0.03 in 0.32 in (1998)
Month to date precipitation 0.04 0.34  
Year to date precipitation 8.35 9.93  
Sea Level Pressure  
Sea Level Pressure 29.87 in    
Wind  
Wind Speed 8 mph (West)    
Max Wind Speed 25 mph    
Max Gust Speed 31 mph    
Visibility 10 miles    
Events Rain    
T = Trace of Precipitation, MM = Missing Value Source: NWS Daily Summary

Daily Weather History Graph

Daily Weather History Graph

Search for Another Location

Airport:

Trip Planner

Search our weather history database for the weather conditions in past years. The results will help you decide how hot, cold, wet, or windy it might be!

Date:

Astronomy

Jul. 11, 2013 Rise Set
Actual Time 5:06 AM PDT 8:41 PM PDT
Civil Twilight 4:27 AM PDT 9:19 PM PDT
Nautical Twilight 3:36 AM PDT 10:10 PM PDT
Astronomical Twilight 2:27 AM PDT 11:18 PM PDT
Moon 8:44 AM PDT (7/11) 10:06 PM PDT (7/11)
Length of Visible Light 16h 51m
Length of Day
15h 35m
Waxing Crescent, 11% of the Moon is Illuminated
Jul 11
Waxing Crescent
Jul 15
First Quarter
Jul 22
Full
Jul 29
Last Quarter
Aug 6
New

Hourly Weather History & Observations

Time (PDT) Temp. Dew Point Humidity Pressure Visibility Wind Dir Wind Speed Gust Speed Precip Events Conditions
12:53 AM 72.0 °F 41.0 °F 33% 29.81 in 10.0 mi West 10.4 mph 23.0 mph N/A   Clear
1:53 AM 69.1 °F 41.0 °F 36% 29.81 in 10.0 mi West 16.1 mph 29.9 mph N/A   Clear
2:53 AM 66.9 °F 44.1 °F 44% 29.83 in 10.0 mi WSW 10.4 mph - 0.00 in Rain Light Rain
3:53 AM 62.1 °F 48.0 °F 60% 29.86 in 10.0 mi South 3.5 mph - 0.01 in   Mostly Cloudy
4:53 AM 61.0 °F 46.9 °F 60% 29.88 in 10.0 mi Calm Calm - N/A   Mostly Cloudy
5:53 AM 61.0 °F 46.0 °F 58% 29.90 in 10.0 mi WSW 5.8 mph - 0.02 in   Clear
6:53 AM 62.1 °F 46.0 °F 56% 29.90 in 10.0 mi WSW 6.9 mph - N/A   Partly Cloudy
7:53 AM 66.0 °F 44.1 °F 45% 29.90 in 10.0 mi WSW 8.1 mph - N/A   Clear
8:53 AM 68.0 °F 39.0 °F 35% 29.90 in 10.0 mi WSW 18.4 mph 23.0 mph N/A   Clear
9:53 AM 70.0 °F 41.0 °F 35% 29.91 in 10.0 mi West 12.7 mph - N/A   Clear
10:53 AM 72.0 °F 43.0 °F 35% 29.92 in 10.0 mi West 11.5 mph - N/A   Clear
11:53 AM 73.9 °F 41.0 °F 30% 29.91 in 10.0 mi WSW 11.5 mph - N/A   Clear
12:53 PM 75.0 °F 39.0 °F 27% 29.90 in 10.0 mi West 8.1 mph 19.6 mph N/A   Clear
1:53 PM 75.9 °F 37.0 °F 24% 29.89 in 10.0 mi WSW 10.4 mph 19.6 mph N/A   Clear
2:53 PM 78.1 °F 39.0 °F 25% 29.87 in 10.0 mi WSW 12.7 mph 25.3 mph N/A   Clear
3:53 PM 79.0 °F 41.0 °F 26% 29.86 in 10.0 mi West 15.0 mph 18.4 mph N/A   Clear
4:53 PM 78.1 °F 41.0 °F 27% 29.85 in 10.0 mi WNW 9.2 mph 19.6 mph N/A   Clear
5:53 PM 78.1 °F 39.9 °F 25% 29.84 in 10.0 mi West 10.4 mph - N/A   Clear
6:53 PM 75.9 °F 36.0 °F 23% 29.83 in 10.0 mi West 10.4 mph - N/A   Clear
7:53 PM 70.0 °F 41.0 °F 35% 29.84 in 10.0 mi WNW 4.6 mph - N/A   Clear
8:53 PM 66.0 °F 37.9 °F 36% 29.85 in 10.0 mi Calm Calm - N/A   Clear
9:53 PM 53.1 °F 42.1 °F 66% 29.87 in 10.0 mi Calm Calm - N/A   Clear
10:53 PM 48.9 °F 39.9 °F 71% 29.88 in 10.0 mi Calm Calm - N/A   Clear
11:53 PM 46.9 °F 37.9 °F 71% 29.88 in 10.0 mi Calm Calm - N/A   Clear